Content
SEND FEEDBACK

Daily
Averages
Monthly
Summary
United States of America

JOPLIN, MONTANA


Home > North America > United States > Montana
Elevation: 888 meters     Latitude: 48 59N     Longitude: 110 35W

WEATHER
 
SELECT A DAY
Number of Records: 138,688;   Date Range: 1/1/95 - 9/12/14
 
SHARE

PRINT THIS DATA

[ ← Previous Day ]
WEATHER ALMANAC - 13 FEBRUARY, 2013
[ Next Day → ]
[ °F ]   °C
Weather ElementAverageHighLow
Temperature-0.6 °C1.9 °C (8:00 am)-5 °C (11:00 pm)
Dewpoint-5.1 °C-2 °C (3:00 pm)-8.4 °C (9:00 pm)
Humidity70.7 %87 % (3:00 pm)51 % (5:00 pm)
Barometer1014.6 hPa1024.7 hPa (11:00 pm)1007.1 hPa (1:00 am)
Wind Speed34 km/h42.6 km/h (1:00 am)
Wind Gust55.5 km/h (6:00 pm)
Weather ElementAverage
Wind DirectionWNW (308.1 °)

Weather ElementTotal
Precipitation---
Heating Degree Days19.9 (Base 18.3)
Averaged from 27 records on 13 February, 2013
WEATHER CONDITIONS BREAKOUT
WIND DIRECTION BREAKOUT
WEATHER BY HOUR - 13 FEBRUARY, 2013
[ °F ]   °C
Local TimeTemperatureDewpointHumidityBarometerVisibilityWind DirectionWind SpeedGust SpeedPrecipitationEventsConditions
1:00 AM1.7 °C-2.1 °C76 %1007.1 hPaWNW (290°)42.6 km/h
2:00 AM1.2 °C-2.8 °C75 %1007.5 hPaWNW (290°)38.9 km/h
3:00 AM-0.9 °C-4.5 °C77 %1007.8 hPaWNW (300°)25.9 km/h
4:00 AM-0.2 °C-4.5 °C73 %1007.5 hPaWNW (300°)33.3 km/h
5:00 AM0 °C-4.4 °C61 %1008.5 hPaWNW (290°)35.2 km/h
5:00 AM-0.2 °C-4.7 °C72 %1008.5 hPaWNW (290°)35.2 km/h
6:00 AM0 °C-4.6 °C71 %1008.8 hPaWNW (290°)37 km/h
7:00 AM0.6 °C-3.7 °C73 %1009.5 hPaNW (310°)35.2 km/h
8:00 AM1.9 °C-3.9 °C66 %1010.2 hPaNW (310°)37 km/h
9:00 AM-0.1 °C-4.9 °C70 %1010.5 hPaWNW (300°)38.9 km/h
10:00 AM1.4 °C-3.8 °C69 %1011.5 hPaWNW (300°)42.6 km/h
11:00 AM1.1 °C-3.3 °C64 %1012.9 hPaNW (310°)31.5 km/h
11:00 AM1.2 °C-3.1 °C73 %1012.9 hPaNW (310°)31.5 km/h
12:00 PM-0.4 °C-2.8 °C84 %1013.9 hPaWNW (300°)25.9 km/h
1:00 PM1.9 °C-3.2 °C69 %1014.2 hPaWNW (300°)29.6 km/h
2:00 PM1.6 °C-3.2 °C71 %1014.9 hPaNW (310°)24.1 km/h
3:00 PM0 °C-2 °C87 %1015.9 hPaNorth (350°)27.8 km/h38.9 km/h
4:00 PM0 °C-4.4 °C73 %1017.3 hPaNNW (340°)20.4 km/h
5:00 PM-0.6 °C-6.7 °C51 %1018.3 hPaNNW (330°)33.3 km/h
5:00 PM-0.8 °C-6.7 °C65 %1018.3 hPaNNW (330°)33.3 km/h44.4 km/h
6:00 PM-1.3 °C-7.7 °C62 %1019 hPaNW (320°)42.6 km/h55.5 km/h
7:00 PM-2.4 °C-8.3 °C64 %1020 hPaNW (320°)38.9 km/h
8:00 PM-3.1 °C-8.2 °C68 %1021.7 hPaNW (320°)38.9 km/h51.8 km/h
9:00 PM-3.8 °C-8.4 °C71 %1022 hPaNW (310°)35.2 km/h
10:00 PM-4.3 °C-8 °C76 %1023.4 hPaWNW (300°)35.2 km/h
11:00 PM-5 °C-8.3 °C70 %1024.7 hPaWNW (300°)33.3 km/h
11:00 PM-4.9 °C-8.2 °C78 %1024.7 hPaWNW (300°)33.3 km/h
Hourly data recorded from CWOE, located 0 kilometers away from Joplin, Montana







STORIES FROM OUR PARTNERS